Regional Weather Roundup
Issued by NWS

Home | Current Version | Previous Version | Graphics & Text | Print | Product List | Glossary On
Versions: 1 2 3 4 5 6 7 8 9 10 11 12 13 14 15 16 17 18 19 20 21 22 23 24 25 26 27 28 29 30 31 32 33 34 35 36 37 38 39 40 41 42 43 44 45 46 47 48 49 50
417
ASUS44 KJAN 171110
RWRMS

MISSISSIPPI HOURLY WEATHER ROUNDUP
NATIONAL WEATHER SERVICE JACKSON MS
500 AM CST WED DEC 17 2014

NOTE: "FAIR: INDICATES FEW OR NO CLOUDS BELOW 12,000 FEET WITH NO
SIGNIFICANT WEATHER AND/OR OBSTRUCTIONS TO VISIBILITY.

MSZ001>002-007>008-010>013-018>021-025>028-034>036-171200-
NORTHWEST MISSISSIPPI

CITY           SKY/WX    TMP DP  RH WIND       PRES   REMARKS
CLARKSDALE     FAIR      32  32 100 N9        30.31R WCI  24
CLEVELAND      FAIR      33  32  96 N6        30.30S WCI  28
GREENWOOD      CLEAR     31  30  96 CALM      30.29S
GREENVILLE     CLEAR     34  30  85 N6        30.30S WCI  29
GRENADA        FAIR      32  30  93 CALM      30.30R
OLIVE BRANCH   CLEAR     28  30 100 N8        30.28F WCI  20
OXFORD         FAIR      28  28 100 CALM      30.29F
TUNICA         PTSUNNY   32  30  93 N7        30.31S WCI  26
$$

MSZ003>006-009-014>017-022>024-029>033-037>039-171200-
NORTHEAST MISSISSIPPI

CITY           SKY/WX    TMP DP  RH WIND       PRES   REMARKS
COLUMBUS AFB   CLEAR     29  28  96 CALM      30.27R
CORINTH        FAIR      36  32  87 NW3       30.26S
GOLDN TRIANGLE CLEAR     34  30  86 NW3       30.25F
STARKVILLE     FAIR      30  30 100 CALM      30.27S
TUPELO         CLEAR     35  31  85 N3        30.27R
$$

MSZ040-058-171200-
CENTRAL MISSISSIPPI

CITY           SKY/WX    TMP DP  RH WIND       PRES   REMARKS
JACKSON INTL   CLEAR     33  31  92 CALM      30.25F
JACKSON HAWKNS CLEAR     34  32  92 NW3       30.26S
MERIDIAN KEY   CLEAR     30  28  92 CALM      30.26S
MERIDIAN NAS   CLEAR     32  30  92 CALM      30.26S
RAYMOND        FAIR      28  25  86 MISG      30.27R FOG
VICKSBURG      CLEAR     37  34  89 N7        30.29R WCI  32
$$

MSZ059>079-171200-
SOUTH MISSISSIPPI

CITY           SKY/WX    TMP DP  RH WIND       PRES   REMARKS
HATTIESBURG    CLEAR     33  31  92 CALM      30.26R
MCCOMB         CLEAR     36  33  89 CALM      30.25R
NATCHEZ        CLEAR     32  28  86 CALM      30.27R
PINE BELT      CLEAR     34  28  80 CALM      30.25R
$$

MSZ080>082-171200-
COASTAL MISSISSIPPI

CITY           SKY/WX    TMP DP  RH WIND       PRES   REMARKS
BILOXI         CLEAR     41  37  84 N6        30.24R
PASCAGOULA     CLEAR     32  31  96 CALM      30.24S
GULFPORT       CLEAR     40  35  83 N5        30.24R
$$



USA.gov is the U.S. government's official web portal to all federal, state and local government web resources and services.